Flag for Israel Weather past 2 weeks in Hadera, Israel

Now
66 °F

Partly sunny.


Feels Like: 66 °F
Forecast: 62 / 69 °F
Wind: 8 mph from Southwest

Location: Dov Airport

Current Time: Apr 21, 2015 at 10:34:43 AM

Latest Report: Apr 21, 2015 at 9:50 AM


Visibility: N/A

Pressure: 29.89 "Hg

Humidity: 83%

Dew point: 61 °F

Location of HaderaLocation

Historic Weather in Hadera — Graph

°F

Hadera temperature yesterday

Maximum temperature yesterday: 82 °F (at 3:50 PM)
Minimum temperature yesterday: 59 °F (at 5:50 AM)
Average temperature yesterday: 75 °F

Past Weeks' High & Low Weather Summary

 TemperatureHumidityPressure
High86 °F (Apr 8, 5:50 PM)100% (Apr 7, 5:50 AM)30.24 "Hg (Apr 7, 5:50 AM)
Low50 °F (Apr 12, 9:50 AM)11% (Apr 7, 5:50 PM)29.59 "Hg (Apr 8, 10:50 PM)
Average65 °F67%29.97 "Hg
* Reported Apr 6 8:50 AM — Apr 21 8:50 AM, Hadera, Weather by CustomWeather, © 2015

Note: Actual official high and low records may vary slightly from our data, if they occured in-between our weather recording intervals... More about our weather records

Advertising

Hadera weather history for previous 24 hours

 ConditionsComfort  
Time TempWeatherWind HumidityBarometerVisibility
8:50 AM
Tue, Apr 21
66 °FPartly sunny.9 mph83%29.86 "HgN/A
7:50 AM66 °FPartly sunny.8 mph83%29.86 "Hg6 mi
6:50 AM64 °FPassing clouds.5 mph88%29.83 "Hg5 mi
5:50 AM66 °FPassing clouds.3 mph83%29.80 "HgN/A
10:50 PM
Mon, Apr 20
77 °FClear.7 mph21%29.80 "Hg10 mi
9:50 PM77 °FClear.6 mph22%29.80 "Hg10 mi
8:50 PM79 °FClear.6 mph20%29.80 "Hg10 mi
7:50 PM79 °FSunny.5 mph20%29.83 "Hg10 mi
6:50 PM82 °FPassing clouds.6 mph15%29.83 "HgN/A
5:50 PM82 °FSunny.9 mph17%29.83 "Hg10 mi
4:50 PM82 °FSunny.12 mph19%29.83 "Hg10 mi
3:50 PM82 °FSunny.12 mph21%29.86 "Hg10 mi
2:50 PM81 °FSunny.10 mph32%29.86 "Hg10 mi
1:50 PM75 °FSunny.7 mph54%29.89 "Hg10 mi
12:50 PM75 °FSunny.6 mph54%29.89 "Hg10 mi
11:50 AM73 °FSunny.9 mph57%29.92 "Hg10 mi
10:50 AM73 °FSunny.9 mph53%29.92 "Hg10 mi
Weather by CustomWeather, © 2015

See weather overviewHow to use our weather pages